Location: Tel Aviv
(32.0670°N, 34.7670°E)
Time: 11:58:36
(UTC+03:00)

Transit 2A - Pass Details

Date: 27 January 2022
Orbit: 598 x 960 km, 66.7° (Epoch: 20 May)

Event Time Altitude Azimuth Distance (km) Brightness Sun altitude
Rises 12:04:44 0° 265° (W) 3,542 9.5 39.5°
Reaches altitude 10° 12:09:40 10° 300° (WNW) 2,663 8.7 39.4°
Maximum altitude 12:11:17 11° 315° (NW) 2,605 8.5 39.4°
Drops below altitude 10° 12:12:55 10° 330° (NNW) 2,688 8.5 39.3°
Sets 12:18:01 0° 5° (N) 3,646 9.0 39.2°
